Location: Unnamed
(53.2784°N, 6.2666°W)
Time: 09:34:16
(UTC+00:00)

N. Korean satellite - Visible Passes

Search period start: 01 December 2021 00:00
Search period end: 11 December 2021 00:00
Orbit: 447 x 495 km, 97.3° (Epoch: 30 November)

Date Brightness Start Highest point End Pass type
(mag) Time Alt. Az. Time Alt. Az. Time Alt. Az.
01 Dec 9.6 04:43:17 10° NE 04:45:10 14° E 04:47:01 10° ESE visible
01 Dec 6.4 06:15:22 10° N 06:18:42 54° WNW 06:22:01 10° SSW visible
01 Dec 7.3 16:54:59 10° S 16:58:30 58° W 17:01:59 10° NNW visible
02 Dec 6.6 05:46:50 10° NNE 05:50:14 69° ESE 05:53:36 10° S visible
02 Dec 8.2 07:21:19 10° NNW 07:22:58 13° WNW 07:24:36 10° W visible
02 Dec 9.9 18:01:58 10° WSW 18:03:36 13° W 18:05:13 10° WNW visible
03 Dec 8.2 05:18:32 10° NNE 05:21:38 32° E 05:24:42 10° SSE visible
03 Dec 7.5 06:51:58 10° N 06:54:43 23° WNW 06:57:27 10° WSW visible
03 Dec 9.2 17:31:55 10° SSW 17:34:51 24° W 17:37:44 10° NW visible
04 Dec 9.4 04:50:39 10° NE 04:52:55 17° E 04:55:10 10° SE visible
04 Dec 6.6 06:23:05 10° N 06:26:21 44° WNW 06:29:36 10° SW visible
04 Dec 7.7 17:02:46 10° S 17:06:11 47° W 17:09:35 10° NNW visible
05 Dec 6.3 05:54:28 10° NNE 05:57:53 85° ESE 06:01:15 10° SSW visible
05 Dec 8.4 07:29:28 10° NW 07:30:31 11° WNW 07:31:35 10° WNW visible
05 Dec 10.2 18:10:41 10° W 18:11:20 10° W 18:11:58 10° WNW visible
06 Dec 7.8 05:26:03 10° NNE 05:29:17 39° E 05:32:28 10° S visible
06 Dec 7.7 06:59:45 10° NNW 07:02:16 20° WNW 07:04:47 10° WSW visible
06 Dec 9.5 17:39:52 10° SW 17:42:31 20° W 17:45:09 10° NW visible
07 Dec 9.1 04:58:01 10° NE 05:00:35 20° E 05:03:07 10° SE visible
07 Dec 6.9 06:30:45 10° N 06:33:55 36° WNW 06:37:03 10° SW visible
07 Dec 8.1 17:10:31 10° SSW 17:13:48 38° W 17:17:05 10° NNW visible
08 Dec 10.0 04:31:23 10° E 04:31:45 10° E 04:32:05 10° E visible
08 Dec 6.2 06:02:02 10° NNE 06:05:26 78° WNW 06:08:48 10° SSW visible
08 Dec 6.6 16:41:42 10° SSE 16:45:11 83° WSW 16:48:39 10° NNW visible
09 Dec 7.3 05:33:32 10° NNE 05:36:51 48° E 05:40:08 10° S visible
09 Dec 7.9 07:07:29 10° NNW 07:09:44 17° WNW 07:12:00 10° WSW visible
09 Dec 9.6 17:47:48 10° SW 17:50:06 17° W 17:52:24 10° NW visible
10 Dec 8.9 05:05:20 10° NE 05:09:32 18° SE 05:10:55 10° SSE visible
10 Dec 7.1 06:38:20 10° N 06:41:22 31° WNW 06:44:24 10° SW visible
10 Dec 8.5 17:18:11 10° SSW 17:21:20 32° W 17:24:28 10° NNW visible
